CW6020 Teulada ES current weather conditions

sailwx.info

Wind from 315 at 0 knots gusting 2

Air temperature 14.4° C
Dewpoint 6.5° C

Last reported at 2017-Jan-24 12:46 UTC.
Time now 2017-Jan-24 13:19 UTC

Location: N 38°44' E 000°06'.
View on Google Maps.

See reports from other nearby stations

  
Tides and Currents Weather Stations Pressure Air Temp Water Temp Dewpoint Dewpoint Depression Visibility Wind Speed Wind Dir Waves Ship Positions
date/time (UTC)wind fromknots sea level pressurealtimeterstation pressurevisibilityair tempwater tempwave heightnotes
2017-Jan-24 12:46 315 0 gusting 2 14.4
2017-Jan-24 12:36 315 1 gusting 3 14.4
2017-Jan-24 12:26 14.4
2017-Jan-24 12:16 090 1 gusting 2 14.4
2017-Jan-24 12:06 045 1 gusting 2 13.9
2017-Jan-24 11:56 090 0 gusting 1 13.9
2017-Jan-24 11:46 180 0 gusting 2 13.3
2017-Jan-24 11:36 045 1 gusting 2 12.8
2017-Jan-24 11:26 225 0 gusting 2 12.2
2017-Jan-24 11:16 090 1 gusting 2 11.7
2017-Jan-24 11:06 180 2 gusting 5 11.1
2017-Jan-24 10:56 135 0 gusting 2 10.6
2017-Jan-24 10:46 090 10.6
2017-Jan-24 10:36 315 10.0
2017-Jan-24 10:26 045 10.0
2017-Jan-24 10:16 10.0
2017-Jan-24 10:06 10.0
2017-Jan-24 09:56 10.0
2017-Jan-24 09:46 9.4
2017-Jan-24 09:36 270 0 gusting 2 9.4
2017-Jan-24 09:26 8.9
2017-Jan-24 09:16 315 1 gusting 2 8.3
2017-Jan-24 09:06 315 8.3
2017-Jan-24 08:56 315 7.8
2017-Jan-24 08:46 315 0 gusting 1 7.8
2017-Jan-24 08:36 315 1 gusting 2 7.8
2017-Jan-24 08:26 315 0 gusting 1 7.8
2017-Jan-24 08:16 7.8
2017-Jan-24 08:06 315 0 gusting 1 7.2
2017-Jan-24 07:56 315 7.2
2017-Jan-24 07:45 7.2
2017-Jan-24 07:31 315 0 gusting 1 7.2
2017-Jan-24 07:16 270 0 gusting 2 7.2
2017-Jan-24 07:06 315 0 gusting 2 7.2
2017-Jan-24 06:56 225 7.2
2017-Jan-24 06:46 7.2
2017-Jan-24 06:36 315 2 gusting 3 7.2
2017-Jan-24 06:25 7.2
2017-Jan-24 06:11 315 1 gusting 2 7.2
2017-Jan-24 06:01 315 0 gusting 1 7.2
2017-Jan-24 05:51 315 2 gusting 5 7.2
2017-Jan-24 05:41 270 1 gusting 2 7.8
2017-Jan-24 05:31 315 2 gusting 5 7.8
2017-Jan-24 05:21 315 2 gusting 3 7.8
2017-Jan-24 05:11 045 2 gusting 5 7.8
2017-Jan-24 05:01 7.8
2017-Jan-24 04:51 7.8
2017-Jan-24 04:36 315 0 gusting 2 7.8
2017-Jan-24 04:25 7.8
2017-Jan-24 04:16 315 2 gusting 5 7.8
2017-Jan-24 04:05 292 0 gusting 2 8.3
2017-Jan-24 03:56 7.8
2017-Jan-24 03:46 8.3
2017-Jan-24 03:36 045 0 gusting 1 7.8
2017-Jan-24 03:25 315 2 gusting 5 7.8
2017-Jan-24 03:11 180 2 gusting 5 7.8
2017-Jan-24 02:56 315 0 gusting 1 7.8
2017-Jan-24 02:46 270 2 gusting 4 7.8
2017-Jan-24 02:36 292 0 gusting 2 7.8
2017-Jan-24 02:26 270 1 gusting 2 7.8
2017-Jan-24 02:16 270 1 gusting 2 7.8
2017-Jan-24 02:06 270 1 gusting 4 7.8
2017-Jan-24 01:56 315 0 gusting 2 7.8
2017-Jan-24 01:46 7.8
2017-Jan-24 01:36 7.8
2017-Jan-24 01:26 315 7.8
2017-Jan-24 01:16 7.8
2017-Jan-24 01:06 7.8
2017-Jan-24 00:56 315 0 gusting 2 7.8
2017-Jan-24 00:46 7.8
2017-Jan-24 00:36 315 7.8
2017-Jan-24 00:26 045 7.8
2017-Jan-24 00:16 315 0 gusting 1 7.8
2017-Jan-24 00:06 270 7.8
2017-Jan-23 23:56 7.8
2017-Jan-23 23:46 7.8
2017-Jan-23 23:36 8.3
2017-Jan-23 23:26 8.3
2017-Jan-23 23:16 8.3
2017-Jan-23 23:06 8.3
2017-Jan-23 22:56 8.3
2017-Jan-23 22:46 315 0 gusting 1 8.3
2017-Jan-23 22:36 315 0 gusting 2 8.3
2017-Jan-23 22:26 315 1 gusting 3 8.3
2017-Jan-23 22:16 315 1 gusting 2 8.3
2017-Jan-23 22:05 315 0 gusting 2 8.3
2017-Jan-23 21:56 337 1 gusting 2 8.3
2017-Jan-23 21:46 8.3
2017-Jan-23 21:36 8.3
2017-Jan-23 21:26 315 8.3
2017-Jan-23 21:16 270 0 gusting 1 8.3
2017-Jan-23 21:06 8.3
2017-Jan-23 20:56 315 0 gusting 1 8.3
2017-Jan-23 20:46 270 1 gusting 2 8.3
2017-Jan-23 20:36 8.3
2017-Jan-23 20:26 292 1 gusting 3 8.3
2017-Jan-23 20:16 8.3
2017-Jan-23 20:06 045 8.9
2017-Jan-23 19:56 135 8.9
2017-Jan-23 19:46 8.9
2017-Jan-23 19:36 8.9
2017-Jan-23 19:26 8.9
2017-Jan-23 19:16 090 2 gusting 6 8.9
2017-Jan-23 19:06 270 2 gusting 4 8.9
2017-Jan-23 18:56 270 1 gusting 3 8.9
2017-Jan-23 18:46 045 0 gusting 1 8.9
2017-Jan-23 18:36 337 0 gusting 2 8.9
2017-Jan-23 18:26 270 2 gusting 5 8.9
2017-Jan-23 18:16 8.9
2017-Jan-23 18:06 8.9
2017-Jan-23 17:56 315 1 gusting 2 8.9
2017-Jan-23 17:46 090 8.9
2017-Jan-23 17:36 292 0 gusting 1 8.9
2017-Jan-23 17:26 045 2 gusting 6 8.9
2017-Jan-23 17:16 090 8.9
2017-Jan-23 17:06 315 3 gusting 5 8.9
2017-Jan-23 16:56 270 5 gusting 6 8.9
2017-Jan-23 16:46 225 2 gusting 3 9.4
2017-Jan-23 16:36 045 0 gusting 2 9.4
2017-Jan-23 16:26 292 2 gusting 2 10.0
2017-Jan-23 16:16 045 3 gusting 5 10.0
2017-Jan-23 16:05 315 2 gusting 4 10.0
2017-Jan-23 15:56 315 1 gusting 2 10.0
2017-Jan-23 15:46 045 1 gusting 2 10.0
2017-Jan-23 15:36 10.0
2017-Jan-23 15:26 225 2 gusting 5 10.0
2017-Jan-23 15:16 270 2 gusting 5 10.0
2017-Jan-23 15:06 10.0
2017-Jan-23 14:56 315 2 gusting 5 10.0
2017-Jan-23 14:46 292 2 gusting 6 10.0
2017-Jan-23 14:36 270 2 gusting 5 10.0
2017-Jan-23 14:26 10.6
2017-Jan-23 14:16 225 2 gusting 3 10.6
2017-Jan-23 14:06 045 3 gusting 7 10.6
2017-Jan-23 13:56 315 3 gusting 6 10.0
2017-Jan-23 13:46 225 2 gusting 5 10.0
2017-Jan-23 13:36 315 3 gusting 6 10.0
2017-Jan-23 13:26 315 4 gusting 6 10.0
2017-Jan-23 13:16 270 3 gusting 8 9.4
2017-Jan-23 13:06 9.4
2017-Jan-23 12:56 045 2 gusting 5 8.9
2017-Jan-23 12:46 225 2 gusting 5 8.9
2017-Jan-23 12:36 270 3 gusting 6 8.3
2017-Jan-23 12:26 7.8
2017-Jan-23 12:16 225 3 gusting 7 7.8
2017-Jan-23 12:06 315 4 gusting 7 7.8
2017-Jan-23 11:46 315 2 gusting 4 7.8
2017-Jan-23 11:36 315 4 gusting 7 7.8
2017-Jan-23 11:26 090 2 gusting 5 7.8
2017-Jan-23 11:16 315 2 gusting 7 7.8
2017-Jan-23 11:06 090 1 gusting 3 8.3
2017-Jan-23 10:56 315 2 gusting 4 8.3
2017-Jan-23 10:46 292 3 gusting 7 8.3
2017-Jan-23 10:36 315 6 gusting 10 8.3
2017-Jan-23 10:26 135 4 gusting 7 8.3
2017-Jan-23 10:16 180 2 gusting 8 8.3
2017-Jan-23 10:06 180 2 gusting 5 8.3
2017-Jan-23 09:56 270 8.3
2017-Jan-23 09:46 090 2 gusting 5 8.3
2017-Jan-23 09:36 180 2 gusting 5 8.3
2017-Jan-23 09:26 135 2 gusting 2 8.3
2017-Jan-23 09:16 292 3 gusting 5 8.3
2017-Jan-23 09:06 270 0 gusting 1 8.3
2017-Jan-23 08:56 8.3
2017-Jan-23 08:46 8.3
2017-Jan-23 08:36 090 6 gusting 9 8.3
2017-Jan-23 08:26 180 2 gusting 6 8.3
2017-Jan-23 08:16 135 4 gusting 9 8.3
2017-Jan-23 08:06 315 1 gusting 3 8.3
2017-Jan-23 07:56 135 1 gusting 3 8.3
2017-Jan-23 07:46 135 6 gusting 11 8.3
2017-Jan-23 07:36 090 7 gusting 16 8.3
2017-Jan-23 07:26 180 2 gusting 5 8.3
2017-Jan-23 07:16 225 6 gusting 12 8.3
2017-Jan-23 07:06 270 3 gusting 5 8.3
2017-Jan-23 06:56 315 4 gusting 6 8.3
2017-Jan-23 06:46 292 4 gusting 6 8.3
2017-Jan-23 06:36 180 6 gusting 10 8.3
2017-Jan-23 06:26 157 5 gusting 7 8.3
2017-Jan-23 06:16 090 2 gusting 5 8.9
2017-Jan-23 06:06 045 4 gusting 6 8.9
2017-Jan-23 05:56 045 2 gusting 5 8.3
2017-Jan-23 05:46 045 5 gusting 13 8.3
2017-Jan-23 05:36 090 3 gusting 6 8.3
2017-Jan-23 05:26 315 2 gusting 5 8.9
2017-Jan-23 05:16 270 1 gusting 5 8.9
2017-Jan-23 05:06 225 2 gusting 5 8.9
2017-Jan-23 04:56 225 5 gusting 7 8.9
2017-Jan-23 04:46 8.9
2017-Jan-23 04:36 090 2 gusting 4 8.9
2017-Jan-23 04:26 135 1 gusting 2 8.9
2017-Jan-23 04:11 202 5 gusting 9 8.9
2017-Jan-23 04:01 225 1 gusting 5 8.9
2017-Jan-23 03:51 090 3 gusting 7 8.9
2017-Jan-23 03:41 315 2 gusting 5 8.9
2017-Jan-23 03:31 180 2 gusting 3 8.9
2017-Jan-23 03:21 090 4 gusting 9 8.9
2017-Jan-23 03:11 8.9
2017-Jan-23 03:01 090 1 gusting 3 8.9
2017-Jan-23 02:51 225 3 gusting 5 8.9
2017-Jan-23 02:41 180 6 gusting 10 8.9
2017-Jan-23 02:31 270 3 gusting 5 8.9
2017-Jan-23 02:21 090 3 gusting 6 8.9
2017-Jan-23 02:11 090 0 gusting 2 8.9
2017-Jan-23 02:01 180 1 gusting 2 8.3
2017-Jan-23 01:51 045 3 gusting 7 8.3
2017-Jan-23 01:41 135 0 gusting 2 8.3
2017-Jan-23 01:31 135 1 gusting 2 8.3
2017-Jan-23 01:21 135 1 gusting 2 8.3
2017-Jan-23 01:11 090 1 gusting 4 8.3
2017-Jan-23 01:01 8.3
2017-Jan-23 00:51 135 1 gusting 2 8.3
2017-Jan-23 00:41 270 4 gusting 5 8.3
2017-Jan-23 00:31 180 7 gusting 11 8.3
2017-Jan-23 00:21 090 4 gusting 7 8.3
2017-Jan-23 00:11 180 1 gusting 2 8.3
2017-Jan-23 00:01 180 6 gusting 13 8.9
2017-Jan-22 23:51 135 2 gusting 5 8.3
2017-Jan-22 23:41 135 3 gusting 6 8.3
2017-Jan-22 23:31 315 4 gusting 7 8.3
2017-Jan-22 23:21 8.3
2017-Jan-22 23:11 180 3 gusting 5 8.9
2017-Jan-22 23:01 157 6 gusting 9 8.3
2017-Jan-22 22:51 180 3 gusting 6 8.3
2017-Jan-22 22:41 315 2 gusting 4 8.3
2017-Jan-22 22:31 045 4 gusting 6 8.3
2017-Jan-22 22:21 135 2 gusting 5 7.8
2017-Jan-22 22:11 315 6 gusting 10 7.8
2017-Jan-22 22:01 292 2 gusting 5 7.8
2017-Jan-22 21:51 045 7 gusting 10 7.8
2017-Jan-22 21:41 315 4 gusting 6 7.8
2017-Jan-22 21:31 270 2 gusting 4 7.8
2017-Jan-22 21:21 315 5 gusting 12 7.8
2017-Jan-22 21:11 022 5 gusting 7 7.2
2017-Jan-22 21:01 7.2
2017-Jan-22 20:51 7.2
2017-Jan-22 20:41 315 4 gusting 7 7.2
2017-Jan-22 20:31 180 6 gusting 11 7.8
2017-Jan-22 20:21 270 3 gusting 6 7.8
2017-Jan-22 20:11 270 5 gusting 11 7.8
2017-Jan-22 20:01 315 4 gusting 6 7.2
2017-Jan-22 19:51 315 2 gusting 6 7.2
2017-Jan-22 19:41 090 4 gusting 6 7.2
2017-Jan-22 19:31 337 6 gusting 12 7.2
2017-Jan-22 19:21 7.2
2017-Jan-22 19:11 315 2 gusting 5 7.2
2017-Jan-22 19:01 315 0 gusting 2 7.2
2017-Jan-22 18:51 315 2 gusting 5 7.2
2017-Jan-22 18:41 225 3 gusting 7 7.2
2017-Jan-22 18:31 315 4 gusting 10 7.2
2017-Jan-22 18:21 315 3 gusting 7 7.2
2017-Jan-22 18:11 315 4 gusting 10 7.2
2017-Jan-22 18:01 292 5 gusting 7 7.8
2017-Jan-22 17:51 315 4 gusting 7 7.8
2017-Jan-22 17:41 270 4 gusting 7 7.8
2017-Jan-22 17:31 292 5 gusting 7 7.8
2017-Jan-22 17:21 315 4 gusting 12 7.8
2017-Jan-22 17:11 315 5 gusting 7 7.8
2017-Jan-22 17:01 090 2 gusting 4 7.8
2017-Jan-22 16:51 045 4 gusting 12 7.8
2017-Jan-22 16:41 315 5 gusting 8 7.8
2017-Jan-22 16:31 337 5 gusting 10 7.8
2017-Jan-22 16:21 315 5 gusting 8 7.8
2017-Jan-22 16:11 270 5 gusting 12 7.8
2017-Jan-22 16:01 270 8 gusting 13 7.8
2017-Jan-22 15:51 292 6 gusting 10 7.8
2017-Jan-22 15:41 315 5 gusting 13 7.8
2017-Jan-22 15:31 270 4 gusting 6 8.3
2017-Jan-22 15:21 090 5 gusting 7 8.3
2017-Jan-22 15:11 135 7 gusting 10 8.3
2017-Jan-22 15:01 270 6 gusting 10 8.3
2017-Jan-22 14:51 180 5 gusting 7 8.3
2017-Jan-22 14:41 135 3 gusting 6 8.3
2017-Jan-22 14:31 112 5 gusting 8 8.3
2017-Jan-22 14:21 315 1 gusting 3 8.3
2017-Jan-22 14:11 135 7 gusting 17 8.3
2017-Jan-22 14:01 315 6 gusting 14 8.3
2017-Jan-22 13:51 315 6 gusting 9 8.3
2017-Jan-22 13:41 225 4 gusting 7 8.3
2017-Jan-22 13:31 067 2 gusting 5 8.3
2017-Jan-22 13:21 180 2 gusting 6 8.3
2017-Jan-22 13:11 225 5 gusting 8 8.3
2017-Jan-22 13:01 180 4 gusting 9 8.3